Retour au catalogue

STARLINK-31534

ActifCommunicationsVLEO
NORAD 59398·PAYLOAD·🇺🇸 United States

Lancé Apr 5, 2024 depuis Cape Canaveral Space Force Station

Loading…

Prochains Passages (prochaines 24 heures)

TLE

FraisSource: CelesTrak SupGP

Époque: Sep 15, 2026, 03:15 UTC

1 59398C 24064A   26258.13590278 -.00025810  00000+0 -93450-3 0  2587
2 59398  43.0029  65.9096 0001718 270.1538  82.1644 15.27602264    13

Suivez STARLINK-31534 en temps réel avec AllMySat

Download on the App Store